Location: Great Chart
(51.1333°N, 0.8333°E)
Time: 09:43:14
(UTC+00:00)

Cosmos 2369 - Pass Details

Date: 19 September 2020
Orbit: 839 x 856 km, 71.0° (Epoch: 30 October)

Event Time Altitude Azimuth Distance (km) Brightness Sun altitude
Exits shadow 03:36:25 32° 220° (SW) 1,428 4.4 -19.2°
Maximum altitude 03:39:10 78° 301° (WNW) 882 3.7 -18.8°
Drops below altitude 10° 03:44:56 10° 28° (NNE) 2,499 6.9 -18.0°
Sets 03:47:24 0° 30° (NNE) 3,438 7.8 -17.6°
